Home   Weather   Saint-Étienne   Past weeks

Flag for France Past Weather in Saint-Étienne, Rhône-Alpes, France — Yesterday and Last 2 Weeks

39 °F


Feels Like: 39 °F
Forecast: 33 / 60 °F
Wind: 2 mph from South

Location: St-Etienne Boutheon

Current Time: Oct 28, 2016 at 6:41:32 AM

Latest Report: Oct 28, 2016 at 6:00 AM

Visibility: 0 mi

Pressure: 30.51 "Hg (28.58 "Hg at 529m altitude)

Humidity: 93%

Dew Point: 37 °F

Location of Saint-ÉtienneLocation

Past Weather in Saint-Étienne — Graph


Saint-Étienne Temperature Yesterday

Maximum temperature yesterday: 55 °F (at 3:30 PM)
Minimum temperature yesterday: 48 °F (at 11:30 PM)
Average temperature yesterday: 52 °F

High & Low Weather Summary for the Past Weeks

High73 °F (Oct 24, 3:00 PM)100% (Oct 14, 2:30 AM)30.51 "Hg (Oct 14, 2:30 AM)
Low37 °F (Oct 22, 3:00 AM)40% (Oct 15, 5:00 PM)29.59 "Hg (Oct 14, 7:00 AM)
Average53 °F82%30.06 "Hg
* Reported Oct 13 5:00 AM — Oct 28 5:30 AM, Saint-Étienne, Weather by CustomWeather, © 2016

Note: Actual official high and low records may vary slightly from our data, if they occured in-between our weather recording intervals... More about our weather records


Saint-Étienne Weather History for the Previous 24 Hours

Scroll right to see more
Time TempWeatherWind HumidityBarometerVisibility
5:30 AM
Fri, Oct 28
39 °FPassing clouds.No wind93%30.51 "Hg1 mi
5:00 AM39 °FFog.1 mph93%30.51 "Hg0 mi
4:30 AM39 °FFog.No wind100%30.51 "Hg0 mi
4:00 AM41 °FDense fog.No wind93%30.51 "Hg1 mi
3:30 AM41 °FDense fog.No wind93%30.51 "Hg1 mi
3:00 AM41 °FFog.No wind93%30.51 "Hg1 mi
2:30 AM41 °FFog.No wind93%30.51 "Hg0 mi
2:00 AM43 °FDense fog.No wind87%30.51 "Hg1 mi
1:30 AM43 °FFog.No wind93%30.51 "Hg0 mi
1:00 AM45 °FClear.No wind87%30.51 "Hg1 mi
12:30 AM45 °FFog.2 mph93%30.51 "Hg1 mi
12:00 AM46 °FFog.No wind87%30.51 "Hg3 mi
11:30 PM
Thu, Oct 27
48 °FPassing clouds.No wind87%30.51 "Hg4 mi
11:00 PM50 °FOvercast.1 mph82%30.51 "HgN/A
10:30 PM50 °FOvercast.2 mph88%30.51 "Hg4 mi
10:00 PM50 °FPassing clouds.2 mph88%30.51 "Hg6 mi
9:30 PM50 °FOvercast.1 mph88%30.51 "Hg6 mi
9:00 PM50 °FPassing clouds.2 mph82%30.51 "HgN/A
8:30 PM50 °FOvercast.2 mph88%30.51 "HgN/A
8:00 PM50 °FPassing clouds.No wind82%30.51 "HgN/A
7:30 PM52 °FPassing clouds.No wind77%30.48 "HgN/A
7:00 PM54 °FPassing clouds.2 mph72%30.48 "HgN/A
6:30 PM54 °FOvercast.6 mph72%30.48 "HgN/A
6:00 PM55 °FOvercast.7 mph67%30.48 "HgN/A
5:30 PM55 °FOvercast.8 mph67%30.48 "HgN/A
5:00 PM55 °FOvercast.9 mph72%30.48 "HgN/A
4:30 PM55 °FMostly cloudy.7 mph67%30.48 "HgN/A
4:00 PM55 °FMostly cloudy.6 mph67%30.48 "HgN/A
3:30 PM55 °FPartly sunny.6 mph67%30.48 "HgN/A
3:00 PM54 °FMostly cloudy.6 mph72%30.48 "HgN/A
2:30 PM54 °FOvercast.7 mph72%30.48 "HgN/A
2:00 PM52 °FMostly cloudy.6 mph77%30.51 "HgN/A
1:30 PM52 °FMostly cloudy.6 mph77%30.51 "HgN/A
1:00 PM52 °FMostly cloudy.8 mph77%30.51 "HgN/A
12:30 PM52 °FMostly cloudy.7 mph77%30.51 "HgN/A
12:00 PM52 °FMore clouds than sun.7 mph77%30.51 "HgN/A
11:30 AM52 °FMostly cloudy.8 mph77%30.51 "HgN/A
11:00 AM50 °FOvercast.7 mph82%30.51 "HgN/A
10:30 AM50 °FOvercast.7 mph82%30.51 "HgN/A
10:00 AM50 °FOvercast.7 mph82%30.51 "HgN/A
9:30 AM50 °FOvercast.8 mph82%30.51 "HgN/A
9:00 AM50 °FOvercast.7 mph82%30.48 "HgN/A
8:30 AM50 °FOvercast.7 mph82%30.48 "HgN/A
8:00 AM50 °FOvercast.6 mph82%30.45 "HgN/A
7:30 AM50 °FOvercast.8 mph88%30.45 "HgN/A
7:00 AM50 °FOvercast.8 mph88%30.45 "HgN/A
6:30 AM50 °FLow clouds.7 mph88%30.45 "HgN/A
6:00 AM50 °FOvercast.7 mph88%30.45 "HgN/A
Weather by CustomWeather, © 2016

See weather overviewHow to use our weather pages